Regional Weather Roundup
Issued by NWS

Home | Current Version | Previous Version | Graphics & Text | Print | Product List | Glossary On
Versions: 1 2 3 4 5 6 7 8 9 10 11 12 13 14 15 16 17 18 19 20 21 22 23 24 25 26 27 28 29 30 31 32 33 34 35 36 37 38 39 40 41 42 43 44 45 46 47 48 49 50
000
ASUS45 KSLC 281810
RWRUT

UTAH REGIONAL WEATHER ROUNDUP
NATIONAL WEATHER SERVICE SALT LAKE CITY UT
1100 AM MST SAT FEB 28 2015

UTZ001>011-023>025-281900-

NORTHERN UTAH

CITY           SKY/WX    TMP DP  RH WIND       PRES   REMARKS
BRIGHAM CITY   PTSUNNY   42  17  36 E9G23     29.72S
HILL AFB       PTSUNNY   38  14  37 E23G32    29.68S WCI  28
LOGAN          SUNNY     36  23  59 NE6       29.75S WCI  31
OGDEN          PTSUNNY   44  16  32 E12       29.69S
PROVO AIRPORT  NOT AVBL
SALT LAKE CITY CLOUDY    42  21  43 SE10      29.69S
VERNAL         PTSUNNY   36  22  56 CALM      29.79S
WENDOVER       CLOUDY    41  25  52 N14       29.71R
HEBER CITY     CLOUDY    30  21  69 CALM      29.72S
WEST JORDAN    CLOUDY    37  23  56 CALM      29.70R

$$

UTZ012>022-026-027-281900-

SOUTHERN/CENTRAL UTAH

CITY           SKY/WX    TMP DP  RH WIND       PRES   REMARKS
BLANDING       CLOUDY    31  31 100 SE9       29.84R WCI  23
CEDAR CITY     LGT SNOW  34  31  88 S12       29.66R FOG     WCI  25
DELTA          CLOUDY    31  31  98 N6        29.67S WCI  26
HANKSVILLE     CLOUDY    34  32  93 N8        29.77S WCI  27
MILFORD        CLOUDY    33  31  92 SW7       29.66R WCI  27
MOAB/CYNLANDS  LGT SNOW  33  28  81 E12       29.75S WCI  24
PRICE          CLOUDY    34  23  64 S5        29.73S WCI  30
ST GEORGE      CLOUDY    43  37  81 N6        29.74R
KANAB          PTSUNNY   39  34  81 S3        29.74S

$$

REGIONAL REPORTS     COLORADO/ARIZONA

CITY           SKY/WX    TMP DP  RH WIND       PRES   REMARKS
CRAIG, CO      SUNNY     33  15  47 E14       29.78F WCI  23
GRAND JUNCTION CLOUDY    35  18  49 SE13      29.79F WCI  26
RIFLE          PTSUNNY   31  16  54 VRB3      29.80F
MONTROSE       CLOUDY    31  20  63 W3        29.80F
CORTEZ         LGT SNOW  32  30  92 NW7       29.80R VSB 3/4 WCI  26
PAGE, AZ       CLOUDY    39  34  82 NE3       29.73R
GRAND CANYON   LGT SNOW  34  31  88 SW12      29.75R VSB 1   WCI  25
KINGMAN        CLOUDY    51  36  56 S17G23    29.76S
FLAGSTAFF      CLOUDY    35  29  78 SW24G36   29.79R WCI  23

$$

REGIONAL REPORTS    NEVADA/IDAHO/WYOMING

CITY           SKY/WX    TMP DP  RH WIND       PRES   REMARKS
LAS VEGAS, NV  MOSUNNY   58  28  32 SW18G32   29.65R
ELY            CLOUDY    33  28  81 N5        29.66R WCI  29
ELKO           CLOUDY    30  29  96 CALM      29.69R
POCATELLO, ID  MOSUNNY   36  18  48 NE13      29.79R WCI  27
BURLEY         PTSUNNY   35  17  47 E17       29.76R WCI  25
EVANSTON, WY   MOSUNNY   23  16  74 E16       29.74R WCI  10
ROCK SPRINGS   CLOUDY    20  11  68 E16       29.81F WCI   6

$$


USA.gov is the U.S. government's official web portal to all federal, state and local government web resources and services.